Wind_Speed
31 32 32 29 27 28 27 25 24 22 21 21 21 20 20 20 17 18 20 21 23 23 24 25 23 23 23 23 24 25 25 23 23 23 21 20 21 20 20 20 19 18
31 32 32 31 30 30 30 30 27 24 22 22 21 19 19 19 18 18 19 20 22 24 26 26 24 24 24 21 22 24 24 23 24 23 22 22 22 21 21 21 20 19
30 31 31 32 32 32 32 33 31 28 25 23 19 17 17 18 18 18 19 20 21 23 25 26 26 27 24 21 21 22 23 24 24 24 23 24 24 22 22 22 21 20
26 28 29 31 33 34 34 35 34 30 27 24 20 18 18 18 18 18 19 20 20 20 23 25 27 27 24 21 21 22 23 25 25 25 24 25 24 23 23 23 22 21
21 23 24 26 31 34 37 37 35 31 28 24 21 22 22 21 20 18 18 20 21 20 21 23 25 26 25 22 21 22 23 24 25 24 24 24 23 23 25 24 22 22
17 19 20 23 26 30 36 38 35 31 27 23 22 23 24 24 22 19 19 21 21 20 21 21 21 22 23 22 20 20 22 23 24 24 24 25 24 24 26 24 21 21
16 18 19 21 23 23 28 34 33 29 25 23 23 24 23 23 23 22 21 22 22 21 20 20 19 18 19 21 21 20 22 24 25 25 25 25 25 26 26 24 22 22
17 18 19 19 19 17 17 24 26 24 23 24 25 24 22 22 23 24 25 26 26 24 21 20 19 18 19 21 21 22 23 25 26 26 25 25 26 26 25 23 22 21
19 19 20 19 17 14 13 19 23 23 24 26 26 24 22 23 24 26 26 27 28 27 23 21 20 19 20 21 21 22 24 26 26 26 26 26 25 25 24 23 21 20
20 20 20 20 18 16 15 19 23 25 25 26 26 25 24 24 26 27 27 28 28 28 25 22 21 21 21 21 22 23 25 26 27 26 26 26 25 24 24 23 22 22
22 22 21 21 21 20 19 20 23 25 26 27 27 27 27 27 28 28 28 28 27 27 25 23 22 21 21 21 22 24 26 27 27 26 25 26 25 26 26 23 22 23
23 23 23 22 22 22 22 23 24 25 27 28 28 28 27 28 29 29 29 28 27 27 26 24 23 22 22 22 23 24 26 27 26 24 23 24 25 26 26 24 22 23
23 24 25 24 24 23 23 24 25 27 28 29 29 28 27 27 28 29 29 28 27 28 27 25 24 23 23 23 24 24 25 26 26 24 22 23 24 26 26 24 23 23
24 25 27 26 25 25 25 24 25 26 28 30 30 30 29 28 28 28 28 27 27 28 28 27 25 25 24 25 25 25 25 27 27 24 22 23 24 25 26 24 23 22
25 27 28 28 26 24 25 26 26 25 26 28 29 30 30 29 28 28 27 27 27 28 29 29 28 26 26 26 27 27 28 27 26 24 23 24 25 26 25 23 21 21
26 28 28 27 26 24 24 25 26 26 25 25 26 28 28 28 28 27 27 27 27 28 29 30 29 28 27 27 27 29 29 27 25 24 24 24 25 26 25 22 20 19
27 27 26 26 26 24 24 23 24 25 25 24 25 27 28 28 27 27 26 26 28 29 29 30 30 29 28 28 29 30 30 28 25 24 24 24 24 24 21 19 18 18
26 26 25 26 27 26 24 22 21 22 24 24 24 25 26 26 26 27 27 26 28 29 29 30 30 29 29 30 30 30 29 27 25 24 23 23 22 21 19 18 18 18
25 26 25 26 26 25 24 21 19 18 20 23 24 24 25 25 25 26 25 25 27 28 28 28 29 29 30 31 32 32 30 27 26 25 24 22 21 20 18 18 17 17
24 25 25 25 23 22 22 20 18 17 19 21 23 24 25 26 26 26 26 26 27 27 28 28 29 30 31 33 34 33 30 27 27 25 24 22 21 19 17 16 16 16
23 24 23 23 21 19 17 17 16 16 17 19 21 23 24 25 26 26 26 27 28 30 31 30 30 32 33 34 35 32 29 27 27 25 23 22 20 18 17 16 16 15
23 24 23 21 20 16 14 13 14 15 18 20 21 21 21 22 23 25 27 28 29 31 32 32 33 34 33 32 32 31 29 27 26 24 23 21 19 17 17 16 15 14
23 23 23 21 20 18 15 14 16 15 15 18 18 17 18 18 16 17 22 27 30 31 32 33 34 33 32 33 33 31 29 27 25 23 22 20 18 17 17 16 15 14
20 20 22 22 20 19 17 16 17 18 13 10 10 10 12 12 10 9 13 20 26 29 31 33 34 32 33 35 34 32 29 27 24 22 21 19 19 18 18 17 16 15
19 17 19 21 21 20 19 16 14 15 14 6 1 3 6 10 10 13 16 20 24 27 29 30 31 31 31 32 32 31 28 26 23 21 20 19 19 19 18 18 17 16
19 17 16 18 19 19 19 17 13 12 12 7 2 4 6 9 12 15 16 20 25 27 26 26 27 28 28 29 29 27 26 24 23 22 21 20 20 20 19 18 17 17
Wind_Direction
268 263 261 260 257 258 260 258 258 263 266 265 271 279 283 287 289 286 284 280 272 262 254 250 244 239 239 236 233 235 237 238 238 238 236 233 231 230 230 232 233 232
267 265 262 261 259 260 262 261 261 264 265 268 273 275 277 282 284 285 289 287 277 266 260 256 251 244 238 233 233 235 236 237 238 239 237 234 231 230 230 231 230 229
265 264 263 262 260 259 260 260 260 261 263 269 271 268 269 274 277 283 290 290 282 271 264 258 254 249 241 232 233 237 238 237 238 240 238 233 229 227 229 229 227 226
271 270 269 268 265 262 260 259 259 259 261 267 267 262 263 270 274 278 285 288 284 275 269 263 256 250 245 236 231 235 238 237 236 238 239 234 228 226 228 228 225 222
281 280 279 277 271 263 258 256 257 256 257 263 266 264 264 268 269 269 276 283 283 277 273 270 262 251 246 241 234 232 235 235 234 236 237 235 229 227 230 230 226 222
292 291 291 292 285 267 254 251 251 252 256 262 266 266 267 269 264 260 268 277 281 280 275 272 268 257 248 245 239 233 232 233 234 234 233 231 228 227 229 229 225 222
299 299 300 304 303 282 255 246 245 249 257 261 260 262 265 266 259 256 265 272 277 282 278 271 270 263 251 244 239 233 231 231 233 234 230 226 225 226 226 225 222 220
298 299 300 303 309 299 263 242 241 248 257 257 254 256 260 260 259 262 268 271 274 277 277 270 266 261 253 245 237 233 233 232 230 231 229 225 225 228 226 222 220 219
302 298 295 293 297 296 267 240 238 248 255 253 251 254 258 260 263 266 269 271 272 272 271 266 260 257 253 247 240 236 236 234 231 229 226 223 225 228 226 220 219 220
309 303 296 290 284 279 262 245 243 250 254 253 254 257 260 262 265 268 270 270 269 267 266 263 257 254 251 247 243 239 239 238 233 227 223 221 221 223 222 216 215 219
311 308 302 294 285 277 266 255 251 251 253 255 257 259 260 262 265 268 270 270 266 261 262 261 255 251 250 245 242 243 244 241 232 223 219 219 219 220 221 216 213 219
311 309 305 299 292 283 273 265 259 255 254 255 257 258 260 261 262 264 266 267 262 256 257 259 252 248 248 243 241 244 244 235 224 218 218 220 218 219 221 217 216 221
312 313 310 305 298 291 283 274 266 260 258 257 257 258 259 258 259 260 261 262 258 252 252 256 250 245 243 241 240 241 234 224 219 217 220 224 222 222 222 217 216 222
312 314 313 309 303 297 292 286 277 268 262 259 259 259 258 257 257 257 257 257 254 249 249 252 250 244 239 238 239 233 222 219 220 219 220 226 227 226 224 218 215 220
310 313 312 309 303 298 295 292 286 277 267 261 260 259 258 258 256 255 254 253 251 249 247 248 249 243 237 237 235 224 217 220 223 223 224 227 227 227 226 222 218 220
310 314 315 313 307 300 296 293 287 282 274 265 259 257 256 256 255 254 253 251 250 248 245 245 245 240 234 233 228 218 216 220 221 225 229 227 227 227 222 218 217 219
308 313 318 320 315 307 300 294 288 281 276 269 261 257 255 254 254 254 252 250 248 246 243 242 241 235 229 227 222 216 216 217 218 225 229 224 224 225 220 212 212 216
306 311 317 320 318 312 305 298 290 281 276 273 268 262 258 255 253 251 250 248 245 242 241 241 236 228 223 222 220 217 214 214 218 223 222 218 217 218 218 215 214 217
305 310 316 319 317 312 308 304 296 283 274 272 271 268 264 258 253 251 248 246 242 238 238 236 226 219 218 218 217 214 210 210 217 217 212 212 215 213 214 217 217 220
307 312 318 319 315 311 310 308 301 286 274 270 268 267 264 259 255 252 245 240 238 235 231 226 219 215 215 215 213 210 208 209 212 210 205 206 211 211 211 213 215 216
308 312 317 319 316 309 303 304 303 291 281 277 271 267 265 260 255 249 240 236 235 232 225 217 213 212 212 212 210 205 204 207 207 202 201 202 204 206 207 208 210 210
308 310 314 317 318 312 302 306 309 296 284 280 276 269 262 255 249 244 239 235 231 228 222 212 206 205 204 204 203 199 198 202 201 198 199 199 199 201 203 206 209 211
308 309 311 312 314 315 316 324 331 323 298 277 268 262 255 250 250 249 240 232 227 223 217 207 202 201 200 199 198 194 194 198 197 195 196 195 196 200 203 207 213 217
309 308 309 310 310 311 314 323 339 349 339 296 265 253 236 222 219 224 225 228 227 219 208 202 201 200 198 198 196 192 192 195 194 193 195 196 199 204 207 213 219 224
316 313 310 310 311 312 313 319 337 356 1 359 144 187 204 211 234 245 235 229 224 210 196 193 197 200 201 199 197 192 190 191 192 194 198 201 204 209 214 219 225 231
321 320 314 309 310 313 317 320 330 350 2 5 333 290 275 268 277 273 249 227 214 201 193 191 193 197 199 196 193 191 189 192 195 199 203 206 210 215 219 224 231 237
Height
3123 3123 3123 3125 3125 3124 3123 3123 3123 3125 3126 3127 3127 3128 3127 3128 3129 3129 3130 3131 3132 3133 3132 3132 3132 3133 3134 3135 3137 3138 3139 3142 3143 3144 3146 3148 3149 3150 3151 3152 3153 3153
3120 3120 3121 3122 3122 3122 3121 3120 3121 3122 3123 3124 3125 3125 3125 3125 3126 3127 3128 3128 3128 3129 3130 3130 3130 3130 3130 3132 3134 3135 3137 3139 3140 3142 3144 3145 3146 3148 3149 3150 3150 3151
3116 3117 3118 3119 3119 3118 3118 3118 3119 3119 3120 3121 3122 3122 3122 3122 3123 3124 3125 3125 3125 3126 3127 3127 3127 3127 3127 3129 3131 3133 3135 3137 3138 3140 3141 3143 3144 3145 3146 3147 3148 3149
3114 3115 3116 3116 3115 3115 3114 3114 3115 3116 3118 3119 3120 3119 3119 3120 3121 3122 3122 3122 3122 3123 3124 3124 3124 3124 3125 3126 3127 3130 3132 3134 3136 3137 3138 3140 3142 3143 3144 3144 3145 3146
3113 3113 3113 3112 3111 3110 3109 3110 3111 3113 3115 3117 3117 3116 3116 3117 3118 3119 3120 3120 3120 3121 3122 3122 3122 3122 3123 3123 3123 3126 3129 3131 3133 3134 3136 3138 3140 3141 3141 3141 3143 3144
3112 3110 3110 3108 3106 3104 3104 3105 3107 3110 3112 3114 3115 3114 3113 3114 3116 3117 3118 3118 3118 3118 3119 3119 3120 3121 3121 3121 3121 3123 3126 3128 3129 3131 3133 3134 3136 3138 3138 3138 3140 3142
3110 3108 3107 3105 3102 3100 3099 3101 3104 3108 3110 3111 3111 3111 3111 3111 3113 3114 3115 3116 3116 3116 3116 3116 3117 3118 3119 3119 3120 3122 3124 3125 3127 3128 3130 3131 3133 3134 3136 3136 3137 3139
3108 3106 3105 3103 3100 3098 3098 3099 3103 3106 3107 3107 3108 3108 3108 3109 3110 3112 3113 3114 3115 3114 3114 3114 3115 3116 3117 3118 3119 3120 3121 3122 3124 3125 3127 3129 3130 3131 3134 3135 3135 3136
3105 3104 3103 3101 3100 3099 3098 3099 3102 3104 3104 3104 3105 3106 3106 3106 3107 3109 3110 3111 3112 3112 3112 3112 3112 3113 3114 3116 3117 3118 3119 3120 3122 3123 3124 3126 3127 3130 3133 3134 3133 3134
3102 3101 3101 3100 3099 3098 3099 3100 3101 3102 3102 3102 3103 3103 3104 3104 3105 3105 3107 3108 3109 3109 3110 3110 3110 3111 3112 3113 3114 3115 3116 3117 3119 3120 3121 3123 3126 3128 3130 3131 3132 3133
3099 3099 3098 3098 3097 3097 3098 3099 3099 3099 3099 3099 3099 3100 3100 3101 3101 3102 3103 3104 3105 3106 3107 3107 3108 3108 3109 3110 3111 3112 3113 3115 3116 3117 3119 3121 3123 3125 3127 3127 3129 3131
3098 3096 3095 3095 3094 3094 3095 3096 3096 3096 3096 3095 3095 3096 3097 3097 3098 3098 3099 3100 3101 3102 3103 3104 3105 3105 3106 3106 3108 3109 3110 3112 3114 3115 3117 3119 3120 3123 3124 3125 3126 3128
3096 3094 3093 3092 3091 3091 3091 3091 3092 3092 3092 3091 3091 3092 3093 3093 3094 3095 3095 3096 3097 3099 3100 3101 3101 3102 3102 3103 3105 3107 3108 3110 3112 3113 3115 3117 3118 3120 3122 3122 3123 3125
3094 3092 3091 3089 3088 3087 3087 3087 3087 3087 3087 3087 3087 3088 3088 3089 3090 3090 3092 3092 3093 3095 3096 3097 3098 3099 3099 3101 3103 3104 3106 3108 3110 3111 3113 3115 3116 3117 3119 3120 3121 3122
3092 3090 3088 3087 3085 3085 3083 3082 3082 3082 3083 3083 3083 3084 3084 3085 3085 3086 3087 3088 3089 3090 3092 3093 3094 3095 3096 3098 3100 3102 3103 3105 3107 3108 3110 3112 3113 3115 3116 3117 3118 3120
3089 3088 3086 3084 3082 3081 3080 3079 3077 3077 3078 3079 3079 3079 3080 3081 3081 3082 3083 3084 3085 3086 3087 3088 3090 3092 3093 3095 3097 3099 3101 3103 3105 3106 3107 3109 3111 3112 3113 3114 3115 3118
3086 3085 3083 3081 3079 3078 3077 3075 3074 3073 3073 3074 3075 3075 3076 3077 3077 3078 3079 3080 3081 3082 3083 3084 3086 3088 3089 3091 3093 3096 3098 3100 3102 3104 3105 3107 3109 3111 3111 3112 3113 3116
3084 3083 3081 3079 3077 3074 3073 3072 3071 3070 3069 3069 3070 3070 3071 3072 3073 3073 3074 3075 3076 3077 3079 3080 3082 3084 3086 3088 3090 3092 3095 3097 3099 3101 3103 3105 3107 3109 3110 3111 3112 3113
3082 3080 3079 3078 3075 3072 3070 3069 3069 3068 3067 3066 3065 3066 3067 3067 3068 3068 3069 3070 3071 3073 3075 3077 3079 3080 3082 3085 3087 3089 3092 3094 3097 3099 3101 3103 3104 3106 3108 3109 3110 3111
3080 3078 3077 3075 3073 3071 3069 3067 3066 3065 3064 3063 3062 3062 3062 3063 3063 3064 3065 3066 3067 3069 3071 3073 3075 3078 3080 3081 3084 3086 3089 3092 3095 3097 3099 3100 3102 3103 3105 3106 3107 3109
3078 3077 3075 3073 3071 3069 3068 3066 3064 3063 3061 3060 3059 3059 3059 3059 3059 3059 3060 3062 3063 3064 3066 3069 3072 3075 3077 3079 3081 3084 3087 3090 3092 3094 3096 3098 3099 3101 3102 3104 3105 3106
3076 3075 3073 3072 3070 3068 3066 3064 3062 3060 3058 3057 3056 3055 3055 3055 3055 3056 3057 3058 3060 3061 3063 3065 3068 3071 3074 3076 3079 3082 3085 3088 3090 3092 3094 3095 3097 3099 3100 3102 3103 3104
3074 3072 3071 3070 3068 3066 3064 3062 3060 3057 3055 3053 3052 3052 3052 3052 3052 3053 3053 3055 3057 3058 3060 3063 3066 3069 3071 3074 3077 3080 3083 3086 3088 3090 3092 3093 3095 3097 3098 3100 3101 3102
3071 3070 3069 3067 3066 3064 3063 3061 3058 3055 3052 3051 3050 3049 3049 3050 3051 3052 3053 3054 3055 3056 3059 3062 3064 3067 3069 3071 3074 3078 3081 3084 3086 3088 3090 3091 3093 3095 3096 3098 3099 3100
3069 3068 3067 3065 3063 3062 3060 3059 3058 3055 3053 3052 3051 3050 3050 3051 3052 3052 3053 3054 3054 3056 3059 3061 3063 3065 3068 3070 3073 3076 3079 3082 3084 3086 3088 3090 3091 3093 3094 3095 3097 3098
3067 3066 3065 3063 3061 3059 3058 3057 3057 3056 3054 3053 3053 3052 3052 3052 3052 3051 3051 3052 3054 3056 3058 3060 3063 3066 3068 3071 3073 3075 3078 3080 3082 3084 3086 3088 3089 3090 3092 3093 3094 3095